Location: Unspecified
(40.7945°N, 0.0000°E)
Time: 03:02:04
(UTC+00:00)

Altair - Pass Details

Date: 25 January 2021
Orbit: 1501 x 1682 km, 47.2° (Epoch: 01 March)

Event Time Altitude Azimuth Distance (km) Brightness Sun altitude
Rises 08:42:33 0° 287° (WNW) 4,924 9.6 13.0°
Reaches altitude 10° 08:45:47 10° 291° (WNW) 3,944 9.1 13.5°
Maximum altitude 08:55:55 66° 13° (NNE) 1,808 8.0 14.9°
Drops below altitude 10° 09:05:56 10° 95° (E) 3,899 10.6 16.3°
Sets 09:09:05 0° 98° (E) 4,867 11.0 16.7°
